sat.trackr.live / text

‹ back to catalog

STARLINK-37297

NORAD 69151 · 2026-111D

PAYLOAD ACTIVE UNKNOWN

§ Identity

Operator
Country
US
Launch date
2026-05-21
Launch site
AFETR
Launch vehicle
Mass (kg)
RCS (m²)

Purposes: comms

External: N2YO · Heavens-Above · Gunter

§ Orbital elements

Epoch: 2026-09-20T00:51:48.755808Z

Period
93.85 min
Inclination
53.1579°
Eccentricity
0.0003999
Mean motion
15.34359487 rev/d
Perigee alt
460.1 km
Apogee alt
465.6 km
Semi-major
6,841.0 km
B*
3.6652e-4
RAAN
68.1800°
Arg perigee
18.2565°
Mean anomaly
341.8581°
Rev number
1,882

§ Raw data

STARLINK-372971 69151U 26111D   26263.03598097  .00012012  00000+0  36652-3 0  99932 69151  53.1579  68.1800 0003999  18.2565 341.8581 15.34359487 18822

JSON: /api/v1/satellites/69151 · /tle

For live sub-satellite position, see the globe view (requires WebGL).

§ Visibility from observer

Set your observer location to see the next 7 days of passes ≥ 10°. The values pass through the URL so the page stays shareable.

No JS? Fill the form by hand. The geolocation button needs JavaScript.